Back to catalog

FORMOSAT 3A

AliveWeatherLEO
NORAD 29047·PAYLOAD·🇹🇼 Taiwan

Launched Apr 15, 2006 from Vandenberg Space Force Base

Loading…

Next Passes (next 24 hours)

TLE

FreshSource: Space-Track

Epoch: Sep 14, 2026, 14:58 UTC

1 29047U 06011A   26257.62378891  .00000278  00000-0  11889-3 0  9993
2 29047  71.9763 127.9984 0046791  82.6544 277.9908 14.31453614 67202

Track FORMOSAT 3A in real time with AllMySat

Download on the App Store